Location: Caltech
(34.1382°N, 118.1253°W)
Time: 10:51:39
(UTC-07:00)

ERBS - Visible Passes

Search period start: 31 October 2014 00:00
Search period end: 09 November 2014 23:00
Orbit: 459 x 489 km, 57.0° (Epoch: 31 October)

Date Brightness Start Highest point End Pass type
(mag) Time Alt. Az. Time Alt. Az. Time Alt. Az.
31 Oct 2.9 18:34:41 10° SW 18:38:16 61° NW 18:41:50 10° NNE visible
02 Nov 5.4 18:16:12 10° NW 18:17:00 11° NW 18:17:49 10° NNW visible
03 Nov 5.2 17:45:36 10° WNW 17:47:16 13° NW 17:48:55 10° N visible
